Flag for Czech Republic Weather past 2 weeks in Brno, Czech Republic

Now
74 °F

Clear.


Feels Like: 77 °F
Forecast: 62 / 90 °F
Wind: 1 mph from Northeast

Location: Brno / Turany

Current Time: Aug 4, 2015 at 12:12:59 AM

Latest Report: Aug 3, 2015 at 10:00 PM


Visibility: 16 mi

Pressure: 30.05 "Hg

Humidity: 60%

Dew point: 59 °F

Location of BrnoLocation

Historic Weather in Brno — Graph

°F

Brno temperature yesterday

Maximum temperature yesterday: 87 °F (at 4:00 PM)
Minimum temperature yesterday: 62 °F (at 6:00 AM)
Average temperature yesterday: 74 °F

Past Weeks' High & Low Weather Summary

 TemperatureHumidityPressure
High96 °F (Jul 22, 5:00 PM)99% (Jul 28, 2:00 AM)30.13 "Hg (Jul 28, 2:00 AM)
Low54 °F (Jul 30, 6:00 AM)28% (Jul 22, 4:00 PM)29.66 "Hg (Jul 25, 5:00 PM)
Average72 °F56%29.91 "Hg
* Reported Jul 19 10:00 PM — Aug 3 10:00 PM, Brno, Weather by CustomWeather, © 2015

Note: Actual official high and low records may vary slightly from our data, if they occured in-between our weather recording intervals... More about our weather records

Advertising

Brno weather history for previous 24 hours

 ConditionsComfort  
Time TempWeatherWind HumidityBarometerVisibility
10:00 PM
Mon, Aug 3
74 °FClear.1 mph60%30.05 "Hg16 mi
9:00 PM75 °FPassing clouds.No wind59%30.04 "Hg16 mi
8:00 PM79 °FPassing clouds.5 mph51%30.02 "Hg19 mi
7:00 PM85 °FPassing clouds.3 mph41%30.01 "Hg19 mi
6:00 PM85 °FScattered clouds.3 mph42%30.02 "Hg16 mi
5:00 PM86 °FScattered clouds.5 mph42%30.02 "Hg16 mi
4:00 PM87 °FScattered clouds.5 mph39%30.03 "Hg16 mi
3:00 PM85 °FScattered clouds.5 mph43%30.04 "Hg16 mi
2:00 PM84 °FScattered clouds.5 mph43%30.06 "Hg16 mi
1:00 PM82 °FPassing clouds.2 mph46%30.07 "Hg16 mi
12:00 PM81 °FPassing clouds.2 mph48%30.07 "Hg16 mi
11:00 AM78 °FPassing clouds.1 mph49%30.09 "Hg12 mi
10:00 AM76 °FPassing clouds.2 mph53%30.10 "Hg9 mi
9:00 AM71 °FScattered clouds.2 mph58%30.11 "Hg9 mi
8:00 AM66 °FPartly sunny.2 mph66%30.12 "Hg9 mi
7:00 AM65 °FOvercast.1 mph68%30.11 "Hg9 mi
6:00 AM62 °FPartly sunny.1 mph72%30.11 "Hg12 mi
5:00 AM63 °FPassing clouds.5 mph69%30.10 "Hg16 mi
4:00 AM63 °FPassing clouds.3 mph70%30.11 "Hg19 mi
3:00 AM63 °FPassing clouds.2 mph72%30.10 "Hg19 mi
2:00 AM65 °FOvercast.2 mph68%30.11 "Hg19 mi
1:00 AM64 °FPassing clouds.1 mph69%30.12 "Hg19 mi
12:00 AM63 °FPassing clouds.2 mph72%30.13 "Hg19 mi
Weather by CustomWeather, © 2015

See weather overviewHow to use our weather pages